Home > Weather > Nesodden > Past weeks

Flag for Norway Past Weather in Nesodden, Norway — Yesterday and Last 2 Weeks

Now
55 °F

Fog.


Feels Like: 51 °F
Forecast: 53 / 70 °F
Wind: 18 mph from Northeast

Location: Statfjord B

Current Time: Aug 26, 2016 at 9:04:48 AM

Latest Report: Aug 26, 2016 at 8:20 AM


Visibility: 2 mi

Pressure: 29.80 "Hg

Humidity: 100%

Dew Point: 55 °F

Location of NesoddenLocation

Past Weather in Nesodden — Graph

°F

Nesodden Temperature Yesterday

Maximum temperature yesterday: 54 °F (at 12:20 AM)
Minimum temperature yesterday: 52 °F (at 6:50 AM)
Average temperature yesterday: 53 °F

High & Low Weather Summary for the Past Weeks

 TemperatureHumidityPressure
High63 °F (Aug 17, 10:20 AM)100% (Aug 12, 2:20 AM)30.30 "Hg (Aug 12, 2:20 AM)
Low50 °F (Aug 11, 7:20 AM)59% (Aug 11, 1:20 PM)29.50 "Hg (Aug 12, 12:50 PM)
Average55 °F90%29.99 "Hg
* Reported Aug 11 7:20 AM — Aug 26 7:50 AM, Nesodden, Weather by CustomWeather, © 2016

Note: Actual official high and low records may vary slightly from our data, if they occured in-between our weather recording intervals... More about our weather records

Advertising

Nesodden Weather History for the Previous 24 Hours

Scroll right to see more
 ConditionsComfort  
Time TempWeatherWind HumidityBarometerVisibility
7:50 AM
Fri, Aug 26
54 °FPartly sunny.20 mph100%29.83 "HgN/A
7:20 AM54 °FFog.22 mph100%29.83 "Hg3 mi
6:50 AM54 °FLow clouds.22 mph100%29.83 "HgN/A
6:20 AM54 °FLow clouds.18 mph100%29.86 "Hg4 mi
5:50 AM52 °FOvercast.20 mph100%29.89 "Hg4 mi
5:20 AM54 °FOvercast.17 mph88%29.92 "HgN/A
4:50 AM54 °FOvercast.15 mph88%29.92 "HgN/A
4:20 AM54 °FOvercast.17 mph88%29.95 "HgN/A
3:50 AM54 °FOvercast.17 mph82%29.95 "HgN/A
3:20 AM54 °FOvercast.15 mph82%29.98 "HgN/A
2:50 AM54 °FOvercast.15 mph82%29.98 "HgN/A
2:20 AM54 °FOvercast.16 mph82%30.01 "HgN/A
1:50 AM54 °FOvercast.14 mph82%30.01 "HgN/A
1:20 AM54 °FOvercast.16 mph77%30.01 "HgN/A
12:50 AM54 °FOvercast.14 mph77%30.04 "HgN/A
12:20 AM54 °FOvercast.13 mph77%30.04 "HgN/A
11:50 PM
Thu, Aug 25
54 °FOvercast.14 mph77%30.04 "HgN/A
11:20 PM54 °FOvercast.15 mph77%30.07 "HgN/A
10:50 PM54 °FOvercast.13 mph77%30.07 "HgN/A
10:20 PM54 °FOvercast.13 mph77%30.07 "HgN/A
9:50 PM54 °FOvercast.12 mph77%30.09 "HgN/A
9:20 PM54 °FPartly sunny.12 mph77%30.09 "HgN/A
8:50 PM54 °FPartly sunny.15 mph77%30.09 "HgN/A
8:20 PM54 °FPartly sunny.12 mph77%30.09 "HgN/A
7:50 PM54 °FOvercast.12 mph77%30.09 "HgN/A
7:20 PM54 °FOvercast.10 mph77%30.09 "HgN/A
6:50 PM52 °FOvercast.7 mph82%30.09 "HgN/A
6:20 PM54 °FOvercast.9 mph77%30.09 "HgN/A
5:50 PM54 °FOvercast.13 mph82%30.12 "HgN/A
5:20 PM54 °FOvercast.8 mph77%30.12 "HgN/A
4:50 PM54 °FOvercast.12 mph77%30.12 "HgN/A
4:20 PM54 °FOvercast.12 mph77%30.12 "HgN/A
3:50 PM54 °FPartly sunny.9 mph77%30.12 "HgN/A
3:20 PM52 °FOvercast.12 mph88%30.12 "HgN/A
2:50 PM52 °FOvercast.12 mph82%30.12 "HgN/A
2:20 PM52 °FOvercast.8 mph82%30.15 "HgN/A
1:50 PM52 °FOvercast.8 mph82%30.15 "HgN/A
1:20 PM52 °FOvercast.10 mph82%30.15 "HgN/A
12:50 PM52 °FOvercast.8 mph82%30.15 "HgN/A
12:20 PM54 °FOvercast.8 mph77%30.15 "HgN/A
11:50 AM52 °FOvercast.9 mph82%30.15 "HgN/A
11:20 AM52 °FOvercast.7 mph82%30.15 "HgN/A
10:50 AM52 °FOvercast.7 mph88%30.15 "HgN/A
10:20 AM52 °FOvercast.7 mph88%30.15 "HgN/A
9:50 AM52 °FOvercast.8 mph88%30.15 "HgN/A
9:20 AM52 °FOvercast.9 mph88%30.15 "HgN/A
Weather by CustomWeather, © 2016

See weather overviewHow to use our weather pages